Location: Breitenfeld
(46.8500°N, 15.6333°E)
Time: 02:26:35
(UTC+00:00)

Cosmos 1825 - Pass Details

Date: 09 April 2020
Orbit: 502 x 509 km, 82.5° (Epoch: 03 June)

Event Time Altitude Azimuth Distance (km) Brightness Sun altitude
Rises 20:00:49 0° 356° (N) 2,629 6.5 -22.4°
Reaches altitude 10° 20:03:01 10° 3° (N) 1,737 5.3 -22.7°
Enters shadow 20:05:36 34° 33° (NNE) 855 3.3 -23.0°
